sat.trackr.live / text

‹ back to catalog

ASTROCAST-0105

NORAD 47517 · 2021-006DH

PAYLOAD ACTIVE UNKNOWN

§ Identity

Operator
Country
SWTZ
Launch date
2021-01-24
Launch site
AFETR
Launch vehicle
Mass (kg)
RCS (m²)

External: N2YO · Heavens-Above · Gunter

§ Orbital elements

Epoch: 2026-06-11T03:00:59.578848Z

Period
88.64 min
Inclination
97.1920°
Eccentricity
0.0014644
Mean motion
16.24489675 rev/d
Perigee alt
197.7 km
Apogee alt
217.0 km
Semi-major
6,585.5 km
B*
1.7653e-3
RAAN
226.7503°
Arg perigee
260.2904°
Mean anomaly
99.6733°
Rev number
30,000

§ Raw data

ASTROCAST-01051 47517U 21006DH  26162.12568957  .04852793  23375-5  17653-2 0  99902 47517  97.1920 226.7503 0014644 260.2904  99.6733 16.24489675300003

JSON: /api/v1/satellites/47517 · /tle

For live sub-satellite position, see the globe view (requires WebGL).

§ Visibility from observer

Set your observer location to see the next 7 days of passes ≥ 10°. The values pass through the URL so the page stays shareable.

No JS? Fill the form by hand. The geolocation button needs JavaScript.